SCD 1 1 22490U 93009B 25137.27720779 .00000545 00000-0 98388-4 0 9991 2 22490 24.9682 131.5500 0041823 268.5169 113.9333 14.45845948703757 TECHSAT 1B 1 25397U 98043D 25137.50977342 .00000122 00000-0 72885-4 0 9994 2 25397 98.9693 116.1491 0000266 312.1164 47.9991 14.24309392395000 SCD 2 1 25504U 98060A 25137.28442352 .00000500 00000-0 89048-4 0 9995 2 25504 24.9969 353.2278 0016623 260.0051 261.8448 14.45288601402984 LANDSAT 7 1 25682U 99020A 25137.56709764 .00000662 00000-0 13652-3 0 9999 2 25682 97.8634 154.4205 0001200 92.3566 5.2120 14.63404778387975 TUBSAT 1 25757U 99029B 25137.49671718 .00000183 00000-0 56693-4 0 9991 2 25757 98.6341 115.8185 0015355 111.8868 248.3961 14.52263981375818 QUIKSCAT 1 25789U 99034A 25137.27346350 .00000584 00000-0 14945-3 0 9997 2 25789 98.3239 17.9069 0097112 57.5109 303.5427 14.51318167355088 TERRA 1 25994U 99068A 25137.63088480 .00000623 00000-0 13713-3 0 9995 2 25994 97.9996 196.6293 0003295 59.3309 93.5828 14.60680453351858 MAROC TUBSAT 1 27004U 01056D 25137.46882345 -.00000023 00000-0 26040-4 0 9995 2 27004 99.7756 302.4308 0020618 77.3204 348.1727 13.70241442171995 AQUA 1 27424U 02022A 25137.62071830 .00001222 00000-0 25774-3 0 9995 2 27424 98.3762 95.5916 0001964 98.1921 74.8918 14.61247394225480 IRS P6 1 28051U 03046A 25137.62969166 .00000336 00000-0 12658-3 0 9999 2 28051 98.2426 187.3556 0065699 88.5756 62.1345 14.35969216123753 TANSUO 1 1 28220U 04012A 25137.40537947 .00012909 00000-0 55634-3 0 9995 2 28220 97.9183 187.2546 0006065 335.6890 24.4058 15.22704881150666 ROCSAT 2 1 28254U 04018A 25137.52966602 .00000347 00000-0 25920-3 0 9993 2 28254 98.7875 113.4705 0001646 45.3543 64.4455 14.01167899 73340 AURA 1 28376U 04026A 25137.57644196 .00001219 00000-0 26178-3 0 9998 2 28376 98.2929 87.3139 0001749 87.3870 272.7530 14.60388470108457 CARTOSAT-1 1 28649U 05017A 25137.34853035 .00001953 00000-0 21010-3 0 9996 2 28649 97.5689 172.8497 0000828 61.1551 298.9750 14.89584668 84865 SINAH 1 1 28893U 05043D 25137.51380103 .00000562 00000-0 11708-3 0 9994 2 28893 98.2340 265.9128 0015835 77.5163 282.7809 14.63698055 42630 EROS B 1 29079U 06014A 25137.57906881 .00045532 00000-0 12144-2 0 9993 2 29079 97.3435 250.6748 0006599 145.0162 215.1517 15.37983802 58449 RESURS DK-1 1 29228U 06021A 25137.56082057 .00003160 00000-0 19576-3 0 9994 2 29228 69.9342 281.7815 0007114 234.7371 125.3129 15.10853090 42775 KOMPSAT 2 1 29268U 06031A 25137.54703171 .00000519 00000-0 10690-3 0 9997 2 29268 97.8385 336.1257 0013180 246.6152 136.1562 14.64280752 3573 LAPAN-TUBSAT 1 29709U 07001A 25137.55963058 .00000871 00000-0 10789-3 0 9998 2 29709 98.1087 123.6637 0013203 38.9816 321.2347 14.85304483992411 HAIYANG 1B 1 31113U 07010A 25137.51749198 .00000146 00000-0 71244-4 0 9992 2 31113 98.3135 130.6449 0012388 297.5692 62.4233 14.30886343944040 SKYMED 1 1 31598U 07023A 25137.58011717 .00000844 00000-0 98970-4 0 9999 2 31598 97.8875 322.0882 0001305 90.8765 269.2600 14.87601660970663 TERRA SAR X 1 31698U 07026A 25137.45513504 .00001257 00000-0 63040-4 0 9999 2 31698 97.4460 145.8175 0001853 96.6950 263.4496 15.19152069993804 WORLDVIEW 1 1 32060U 07041A 25137.32851585 .00009389 00000-0 38844-3 0 9997 2 32060 97.3827 257.8886 0002680 189.4116 170.7072 15.24167571982629 YAOGAN 3 1 32289U 07055A 25137.58076910 .00003040 00000-0 33159-3 0 9996 2 32289 97.8541 165.9882 0001294 89.7598 270.3767 14.88684104946961 SKYMED 2 1 32376U 07059A 25137.48189700 .00000714 00000-0 96201-4 0 9991 2 32376 97.8875 321.8258 0001320 91.0290 269.1074 14.82163962943381 RADARSAT 2 1 32382U 07061A 25137.56250176 .00000103 00000-0 56778-4 0 9993 2 32382 98.5786 145.1379 0001284 89.4955 270.6374 14.29982566909412 CARTOSAT 2A 1 32783U 08021A 25137.58611290 .00001058 00000-0 15091-3 0 9997 2 32783 97.8167 193.6136 0010286 322.0557 37.9928 14.78717374920337 JASON 2 1 33105U 08032A 25137.56211301 -.00000044 00000-0 70138-4 0 9994 2 33105 66.0376 162.7730 0008381 270.9967 218.8743 12.87690823792768 RAPIDEYE 2 1 33312U 08040A 25137.17957405 .00003095 00000-0 23089-3 0 9992 2 33312 97.4699 176.3137 0020126 128.1725 232.1318 15.03415797906437 RAPIDEYE 5 1 33313U 08040B 25137.53978064 .00002151 00000-0 17299-3 0 9995 2 33313 97.4339 168.6490 0017646 22.2765 337.9223 15.00886710906125 RAPIDEYE 1 1 33314U 08040C 25137.16077375 .00002401 00000-0 18804-3 0 9991 2 33314 97.4568 176.3182 0026976 97.2371 263.1922 15.01638818906193 RAPIDEYE 3 1 33315U 08040D 25137.53617444 .00003272 00000-0 23540-3 0 9990 2 33315 97.4274 178.2017 0010076 315.7242 44.3178 15.04861234906730 RAPIDEYE 4 1 33316U 08040E 25137.48644186 .00002365 00000-0 18327-3 0 9997 2 33316 97.4311 173.8443 0006717 338.0391 22.0546 15.02317465906335 HJ-1A 1 33320U 08041A 25137.59391256 .00002047 00000-0 25965-3 0 9995 2 33320 97.6406 134.9096 0019457 2.1917 357.9379 14.82631898899765 HJ-1B 1 33321U 08041B 25137.54938868 .00001523 00000-0 19507-3 0 9990 2 33321 97.6294 139.0414 0038253 43.4001 317.0213 14.82196124899872 GEOEYE 1 1 33331U 08042A 25137.55187421 .00000758 00000-0 15158-3 0 9991 2 33331 98.1222 211.5106 0003593 204.5292 155.5740 14.64647776892232 THEOS 1 33396U 08049A 25137.56088189 .00000089 00000-0 61892-4 0 9995 2 33396 98.6104 201.4700 0001064 89.5097 270.6201 14.20103468861818 SKYMED 3 1 33412U 08054A 25137.58404492 .00005746 00000-0 42701-3 0 9993 2 33412 97.8725 344.5173 0017419 159.9660 200.2252 15.03292745897430 YAOGAN 4 1 33446U 08061A 25137.54050685 .00001587 00000-0 20646-3 0 9998 2 33446 97.9043 70.0865 0013166 280.8138 79.1593 14.81996579887047 GOSAT (IBUKI) 1 33492U 09002A 25137.54734399 .00000752 00000-0 14108-3 0 9995 2 33492 98.0607 249.2681 0001152 126.6172 233.5138 14.67553761873434 YAOGAN 6 1 34839U 09021A 25137.47020729 .00284378 35308-4 58574-3 0 9995 2 34839 97.1921 117.6107 0005073 71.2913 288.8915 15.99259402895716 DEIMOS 1 1 35681U 09041A 25137.59948317 .00000815 00000-0 12942-3 0 9996 2 35681 97.6991 308.2393 0002401 62.6818 297.4635 14.74567348848579 DUBAISAT 1 1 35682U 09041B 25137.60550997 .00001524 00000-0 23983-3 0 9997 2 35682 97.9519 271.8672 0009411 259.1124 100.9025 14.73915501846807 OCEANSAT 2 1 35931U 09051A 25137.58573768 -.00000176 00000-0 -94584-4 0 9993 2 35931 98.2254 159.3213 0015583 273.4422 86.4962 13.99591092823997 WORLDVIEW 2 1 35946U 09055A 25137.55941957 .00000195 00000-0 80027-4 0 9995 2 35946 98.4791 211.5856 0003483 343.4751 16.6322 14.37190028818800 SMOS 1 36036U 09059A 25137.47807027 .00000388 00000-0 13777-3 0 9991 2 36036 98.4430 325.5712 0001287 86.4068 273.7268 14.39764453816515 YAOGAN 7 1 36110U 09069A 25137.50520145 .00000716 00000-0 10778-3 0 9995 2 36110 98.0586 19.7555 0023692 232.2757 127.6306 14.77395227831195 TANDEM X 1 36605U 10030A 25137.45513611 .00001167 00000-0 58756-4 0 9998 2 36605 97.4448 145.8170 0001767 81.9072 278.2363 15.19151704826553 CARTOSAT 2B 1 36795U 10035A 25137.55450898 .00001043 00000-0 14878-3 0 9990 2 36795 97.8104 192.9710 0012326 41.2687 318.9454 14.78748859801387 YAOGAN 10 1 36834U 10038A 25137.61481809 .00000933 00000-0 11808-3 0 9997 2 36834 97.9269 158.8295 0001463 86.5460 64.1921 14.84173849798511 SKYMED 4 1 37216U 10060A 25137.56209667 .00000672 00000-0 91003-4 0 9997 2 37216 97.8874 321.9084 0001313 85.4051 274.7312 14.82149621785961 HAIYANG 2A 1 37781U 11043A 25137.57508001 .00000005 00000-0 48654-4 0 9995 2 37781 99.3327 141.7260 0000206 81.8992 278.2183 13.78814515692165 RASAT 1 37791U 11044D 25137.54938965 .00000733 00000-0 13745-3 0 9990 2 37791 98.0666 229.9246 0020899 10.0458 114.6787 14.67561666735146 SRMSAT 1 37841U 11058D 25137.62418912 .00000474 00000-0 11378-3 0 9997 2 37841 19.9728 293.4661 0011715 172.1271 270.3014 14.11429048701861 PLEIADES 1 1 38012U 11076F 25137.58209266 .00000509 00000-0 11941-3 0 9998 2 38012 98.1984 213.3214 0001043 90.9462 39.9803 14.58532644714320 ZY 1 1 38038U 11079A 25137.51392992 .00000630 00000-0 22383-3 0 9998 2 38038 98.4539 207.1184 0007437 58.2811 65.4386 14.37745536702344 ZY 3 1 38046U 12001A 25137.58720008 .00025311 00000-0 42267-3 0 9999 2 38046 97.1984 202.1408 0003957 48.3489 311.8103 15.51921168742412 RISAT 1 1 38248U 12017A 25137.32900320 .00022040 00000-0 54930-3 0 9995 2 38248 97.4915 165.2006 0004087 120.5248 239.6402 15.40233419720729 KOMPSAT 3 1 38338U 12025B 25137.60991584 .00000695 00000-0 14675-3 0 9991 2 38338 98.3049 91.0326 0005638 263.9509 96.1049 14.62472887693553 EXACTVIEW-1 1 38709U 12039C 25137.55148707 .00000199 00000-0 10528-3 0 9995 2 38709 98.9505 241.7363 0010154 227.7477 132.2841 14.24808711666362 SPOT 6 1 38755U 12047A 25137.57359118 .00000492 00000-0 11572-3 0 9993 2 38755 98.1781 205.8841 0001081 89.0036 271.1287 14.58539951675385 PLEIADES 1B 1 39019U 12068A 25137.52258190 .00000508 00000-0 11913-3 0 9990 2 39019 98.1956 213.2168 0001238 96.7239 263.4102 14.58581120663171 GOKTURK 2 1 39030U 12073A 25137.58751940 .00000679 00000-0 10807-3 0 9996 2 39030 97.7128 349.3048 0001597 111.9281 248.2099 14.74976932666180 LANDSAT 8 1 39084U 13008A 25137.55707487 .00000466 00000-0 11360-3 0 9997 2 39084 98.2262 208.4183 0001287 97.1438 262.9906 14.57102421640282 SARAL 1 39086U 13009A 25137.56376760 .00000135 00000-0 65507-4 0 9993 2 39086 98.5539 324.2098 0002623 44.3444 315.7949 14.32698944638950 GAOFEN 1 1 39150U 13018A 25137.56936569 .00000998 00000-0 15029-3 0 9994 2 39150 97.9502 211.6419 0019203 99.6630 260.6750 14.76490876649865 VNREDSAT 1 1 39160U 13021B 25137.61550126 .00000920 00000-0 18074-3 0 9994 2 39160 97.9505 200.0174 0001294 92.2734 267.8618 14.64896283642374 KOMPSAT 5 1 39227U 13042A 25137.57419699 .00001936 00000-0 14265-3 0 9991 2 39227 97.6207 324.8027 0003988 69.4047 290.7607 15.04501812644372 SKYSAT 1 1 39418U 13066C 25137.22250797 .00004236 00000-0 26412-3 0 9996 2 39418 97.4359 193.6733 0021518 237.7558 122.1587 15.09871436628679 DUBAISAT 2 1 39419U 13066D 25137.57189520 .00004847 00000-0 33446-3 0 9993 2 39419 97.4332 134.9530 0010485 317.5585 42.4831 15.06199012626766 GPM 1 39574U 14009C 25137.58651050 .00012843 00000-0 27618-3 0 9995 2 39574 64.9756 193.2858 0013673 265.5513 94.4065 15.44858865636704 SENTINEL 1A 1 39634U 14016A 25137.57336365 -.00000006 00000-0 83822-5 0 9998 2 39634 98.1798 145.8413 0001384 88.8456 271.2902 14.59200019592325 KAZEOSAT 1 1 39731U 14024A 25137.52058706 .00000305 00000-0 10608-3 0 9991 2 39731 98.3596 213.8718 0001207 97.1974 262.9353 14.42041471581532 ALOS 2 1 39766U 14029A 25137.55462392 .00002261 00000-0 30950-3 0 9992 2 39766 97.9223 235.3955 0001594 96.5759 263.5634 14.79480191593085 KAZEOSAT 2 1 40010U 14033A 25137.52780257 .00000772 00000-0 97286-4 0 9992 2 40010 97.5764 352.4066 0009139 176.1247 184.0041 14.84601731590233 HODOYOSHI 4 1 40011U 14033B 25137.53725800 .00001812 00000-0 20865-3 0 9991 2 40011 97.5544 336.7338 0024383 172.5383 187.6201 14.86679004589994 DEIMOS 2 1 40013U 14033D 25137.59018818 .00002031 00000-0 20589-3 0 9990 2 40013 97.6369 20.1087 0001502 112.8355 247.3023 14.91973699578707 HODOYOSHI 3 1 40015U 14033F 25137.43923314 .00002042 00000-0 24954-3 0 9993 2 40015 97.6085 312.7110 0032874 215.4370 144.4661 14.83934773588903 SPOT 7 1 40053U 14034A 25137.58792765 .00000683 00000-0 15040-3 0 9991 2 40053 98.1128 204.1881 0001510 85.2267 274.9106 14.60432982579384 SKYSAT 2 1 40072U 14037D 25137.52150487 .00001644 00000-0 19270-3 0 9995 2 40072 98.3418 70.6958 0007071 114.5785 245.6166 14.86466299587150 WORLDVIEW 3 1 40115U 14048A 25137.58375976 .00001400 00000-0 16913-3 0 9994 2 40115 97.8589 212.3672 0005946 167.7185 192.4176 14.85301717583194 YAOGAN 21 1 40143U 14053A 25137.58137128 .00009873 00000-0 41714-3 0 9995 2 40143 97.2006 189.5336 0013726 92.8764 267.4045 15.23348198594693 YAOGAN 22 1 40275U 14063A 25137.64121507 .00000024 00000-0 18617-3 0 9998 2 40275 100.7128 278.4183 0006276 6.4005 353.7185 13.15510356507800 ASNARO 1 40298U 14070A 25137.53352548 .00014211 00000-0 66379-3 0 9991 2 40298 97.3785 218.3372 0007987 111.7236 248.4850 15.19889337583924 CBERS-4 1 40336U 14079A 25137.55072311 .00000174 00000-0 75065-4 0 9998 2 40336 98.3544 202.3625 0002009 82.0470 278.0944 14.35500560547192 YAOGAN 26 1 40362U 14088A 25137.55554737 .00016814 00000-0 54317-3 0 9998 2 40362 97.0651 146.8960 0007654 56.9620 303.2356 15.32139245576857 SMAP 1 40376U 15003A 25137.52393027 .00000707 00000-0 14581-3 0 9994 2 40376 98.1282 145.1972 0001621 103.3504 256.7879 14.63382435549750 KOMPSAT 3A 1 40536U 15014A 25137.57439279 .00017620 00000-0 49983-3 0 9995 2 40536 97.6556 102.2055 0004716 146.4539 213.7003 15.36282892560770 SENTINEL 2A 1 40697U 15028A 25137.55034803 .00000178 00000-0 84638-4 0 9997 2 40697 98.5696 213.0652 0001234 99.0027 261.1296 14.30813201517156 CARBONITE 1 1 40718U 15032D 25137.56400541 .00002726 00000-0 35169-3 0 9998 2 40718 97.6448 327.9795 0015742 147.2763 212.9429 14.81690562530729 YAOGAN 27 1 40878U 15040A 25137.48916433 .00000009 00000-0 13357-3 0 9994 2 40878 100.0868 136.6749 0008886 51.3866 308.8042 13.16048389465617 YAOGAN 28 1 41026U 15064A 25137.60250626 .00011242 00000-0 46949-3 0 9999 2 41026 97.2552 281.8908 0015605 133.9286 226.3243 15.23686817530401 YAOGAN 29 1 41038U 15069A 25137.55087005 .00000613 00000-0 82850-4 0 9992 2 41038 98.0359 159.8242 0001070 160.6993 199.4260 14.82612307511995 KENT RIDGE 1 1 41167U 15077B 25136.66989791 .00004199 00000-0 15671-3 0 9997 2 41167 14.9813 327.3158 0009107 57.5139 302.6062 15.19814638520612 TELEOS 1 1 41169U 15077D 25137.55695219 .00247367 00000-0 11036-2 0 9993 2 41169 14.9771 109.4997 0001926 188.7299 171.2997 15.82179199522752 JASON 3 1 41240U 16002A 25137.55360042 -.00000120 00000-0 -25514-3 0 9998 2 41240 66.0408 237.0811 0007933 270.4057 89.6049 12.80927751436322 SENTINEL 3A 1 41335U 16011A 25137.61386889 .00000148 00000-0 79099-4 0 9993 2 41335 98.6262 205.6389 0001073 107.8743 252.2554 14.26733001481651 SENTINEL 1B 1 41456U 16025A 25137.52719301 .00005638 00000-0 50192-3 0 9992 2 41456 98.1447 177.5238 0016666 11.9270 348.2342 14.96378594484551 ZY 3 2 1 41556U 16033A 25137.49127100 .00009298 00000-0 42041-3 0 9998 2 41556 97.4192 214.8693 0007001 242.7055 117.3468 15.21129134497820 CARTOSAT 2C 1 41599U 16040A 25137.61369272 .00006652 00000-0 31782-3 0 9996 2 41599 97.4233 198.1690 0012746 75.5521 284.7127 15.19283348493659 SKYSAT C1 1 41601U 16040C 25137.49673472 .00010603 00000-0 37302-3 0 9991 2 41601 97.0072 186.4981 0003195 129.2540 230.8985 15.29501092497275 LAPAN A3 1 41603U 16040E 25137.60662259 .00004373 00000-0 15426-3 0 9997 2 41603 97.1376 143.1185 0010871 2.2289 357.8999 15.29703513494274 BIROS 1 41604U 16040F 25137.33930967 .00037519 00000-0 45105-3 0 9997 2 41604 97.0876 166.2257 0003437 241.2792 118.8121 15.60764152495879 SKYSAT C4 1 41771U 16058B 25137.07358857 .00010066 00000-0 28749-3 0 9997 2 41771 96.9576 173.1256 0000742 157.2725 202.8553 15.36189569484432 SKYSAT C5 1 41772U 16058C 25137.57377080 .00014086 00000-0 39964-3 0 9999 2 41772 97.1019 188.9509 0009395 122.4571 237.7584 15.36279911483058 SKYSAT C2 1 41773U 16058D 25137.54371553 .00011842 00000-0 38082-3 0 9993 2 41773 97.0552 171.4286 0005287 57.9726 302.2030 15.32375640484281 SKYSAT C3 1 41774U 16058E 25137.11595582 .00010566 00000-0 29169-3 0 9995 2 41774 96.9546 181.4398 0001408 115.6453 244.4938 15.37236433484991 ALSAT 1B 1 41785U 16059C 25137.56433011 .00000579 00000-0 10020-3 0 9994 2 41785 97.7897 158.2466 0010707 62.5476 297.6819 14.71811659462378 PATHFINDER 1 1 41787U 16059E 25137.47264187 .00001019 00000-0 18948-3 0 9999 2 41787 97.8138 149.9716 0029587 30.3149 329.9760 14.66889161461684 GOKTURK-1A 1 41875U 16073A 25137.52928231 .00000577 00000-0 12217-3 0 9997 2 41875 98.1163 32.9448 0001408 85.1134 275.0228 14.62791122450987 RESOURCESAT 2A 1 41877U 16074A 25137.52226412 .00000201 00000-0 11104-3 0 9990 2 41877 98.6059 209.5496 0002343 95.3996 264.7449 14.21672519438081 CARTOSAT 2D 1 41948U 17008A 25137.58033649 .00007242 00000-0 34692-3 0 9990 2 41948 97.4624 197.8526 0005888 172.8191 187.3129 15.19219573457512 SENTINEL 2B 1 42063U 17013A 25137.61311146 .00000278 00000-0 12283-3 0 9994 2 42063 98.5699 213.0668 0001190 88.4803 271.6516 14.30815092428073 ZHUHAI-1 02 1 42759U 17034B 25137.31815311 .00084170 00000-0 98354-3 0 9995 2 42759 43.0072 100.2226 0018160 131.7206 228.5214 15.60424688438962 NUSAT-3 1 42760U 17034C 25137.49849964 .00275601 00000-0 11609-2 0 9995 2 42760 42.9917 62.6233 0021207 182.7267 177.3492 15.83599550439425 ZHUHAI-1 01 1 42761U 17034D 25137.36875755 .00087523 00000-0 97931-3 0 9996 2 42761 43.0110 97.3108 0019480 136.5777 223.6625 15.61500260438981 CARTOSAT 2E 1 42767U 17036C 25137.59540202 .00006899 00000-0 33048-3 0 9991 2 42767 97.4791 197.4984 0002776 218.1672 141.9367 15.19252419438089